This is the latest recevied weather packets stored in our database for station/object HS2LXA-WX. If no packets are shown the sender has not sent any weather packets the latest 10 day(s).
| Time | Temp. | Humidity | Pressure | Rain* | Wind** | Luminosity | Snow |
|---|---|---|---|---|---|---|---|
| 1787903152 | 31.11° C | 89% | 1008.2 hPa | 0 mm | - | - | - |
| 1787902410 | 31.11° C | 88% | 1008.5 hPa | 0 mm | - | - | - |
| 1787901810 | 31.11° C | 87% | 1008.7 hPa | 0 mm | - | - | - |
| 1787901210 | 31.67° C | 87% | 1008.6 hPa | 0 mm | - | - | - |
| 1787900610 | 32.22° C | 86% | 1008.7 hPa | 0 mm | - | - | - |
| 1787900010 | 31.67° C | 86% | 1008.7 hPa | 0 mm | - | - | - |
| 1787899410 | 31.67° C | 86% | 1008.9 hPa | 0 mm | - | - | - |
| 1787898809 | 31.67° C | 86% | 1009 hPa | 0 mm | - | - | - |
| 1787898209 | 31.67° C | 87% | 1009.1 hPa | 0 mm | - | - | - |
| 1787897610 | 32.22° C | 87% | 1009.3 hPa | 0 mm | - | - | - |
| 1787897009 | 31.67° C | 87% | 1009.4 hPa | 0 mm | - | - | - |
| 1787896409 | 32.22° C | 86% | 1009.6 hPa | 0 mm | - | - | - |
| 1787895808 | 31.67° C | 87% | 1009.7 hPa | 0 mm | - | - | - |
| 1787895207 | 32.22° C | 86% | 1010.2 hPa | 0 mm | - | - | - |
| 1787894607 | 31.67° C | 87% | 1010.3 hPa | 0 mm | - | - | - |
| 1787894007 | 32.22° C | 86% | 1010.4 hPa | 0 mm | - | - | - |
| 1787893408 | 32.22° C | 85% | 1010.4 hPa | 0 mm | - | - | - |
| 1787892808 | 32.22° C | 85% | 1010.4 hPa | 0 mm | - | - | - |
| 1787892208 | 32.22° C | 86% | 1010.6 hPa | 0 mm | - | - | - |
| 1787891602 | 31.67° C | 89% | 1010.7 hPa | 0 mm | - | - | - |
| 1787891002 | 31.67° C | 88% | 1010.8 hPa | 0 mm | - | - | - |
| 1787889525 | 30.56° C | 91% | 1010.8 hPa | 0 mm | - | - | - |
| 1787888925 | 30.56° C | 90% | 1011.1 hPa | 0 mm | - | - | - |
| 1787888325 | 30.56° C | 91% | 1011.2 hPa | 0 mm | - | - | - |
| 1787887725 | 31.11° C | 88% | 1011.2 hPa | 0 mm | - | - | - |
* Rain latest hour (hover to see other rain measurements)
** Current wind speed in m/s (hover to see current wind gust speed)